QPF
0.02 0.02 0.02 0.04 0.05 0.04 0.03 0.03 0.03 0.01 0.01 0.02 0.02 0.03 0.02 0.01 0.01 0.01 0.03 0.05 0.05 0.06 0.08 0.09 0.11 0.17 0.26 0.28 0.26 0.17 0.12 0.12 0.10 0.08 0.09 0.08 0.06 0.06 0.07 0.08 0.08 0.07 0.06 0.06 0.06 0.04 0.04 0.03 0.03
0.02 0.02 0.03 0.05 0.04 0.03 0.03 0.03 0.02 0.01 0.01 0.01 0.01 0.01 0.01 0.01 0.02 0.02 0.03 0.05 0.04 0.05 0.07 0.06 0.12 0.19 0.21 0.16 0.11 0.11 0.09 0.08 0.08 0.08 0.10 0.13 0.09 0.07 0.07 0.07 0.06 0.05 0.05 0.04 0.05 0.04 0.05 0.04 0.03
0.04 0.05 0.06 0.05 0.05 0.03 0.02 0.03 0.01 0.01 0.01 0.01 0.01 0.01 0.01 0.02 0.02 0.02 0.03 0.03 0.03 0.04 0.06 0.06 0.06 0.08 0.09 0.07 0.06 0.07 0.06 0.07 0.07 0.07 0.09 0.14 0.15 0.10 0.09 0.07 0.05 0.04 0.03 0.04 0.05 0.05 0.04 0.03 0.03
0.08 0.07 0.05 0.04 0.03 0.02 0.02 0.02 0.01 0.00 0.01 0.01 0.01 0.01 0.01 0.02 0.02 0.02 0.03 0.02 0.02 0.02 0.04 0.05 0.05 0.05 0.05 0.05 0.05 0.06 0.06 0.05 0.06 0.06 0.05 0.07 0.10 0.11 0.10 0.07 0.04 0.02 0.03 0.03 0.06 0.05 0.03 0.03 0.03
0.07 0.05 0.03 0.02 0.02 0.01 0.02 0.02 0.01 0.00 0.01 0.00 0.01 0.01 0.02 0.03 0.02 0.03 0.05 0.04 0.03 0.02 0.04 0.05 0.04 0.04 0.04 0.05 0.05 0.06 0.06 0.05 0.04 0.05 0.05 0.04 0.05 0.07 0.09 0.10 0.05 0.02 0.02 0.04 0.05 0.03 0.03 0.03 0.03
0.05 0.03 0.02 0.02 0.02 0.02 0.02 0.02 0.01 0.00 0.00 0.00 0.00 0.01 0.03 0.04 0.03 0.03 0.05 0.04 0.03 0.02 0.03 0.04 0.05 0.05 0.04 0.05 0.05 0.04 0.05 0.03 0.03 0.04 0.05 0.05 0.05 0.06 0.06 0.08 0.07 0.03 0.03 0.04 0.03 0.03 0.03 0.04 0.03
0.05 0.04 0.04 0.03 0.02 0.02 0.03 0.02 0.01 0.00 0.00 0.00 0.00 0.01 0.03 0.05 0.05 0.04 0.04 0.03 0.03 0.02 0.03 0.04 0.05 0.05 0.05 0.05 0.05 0.04 0.04 0.03 0.02 0.04 0.04 0.06 0.06 0.06 0.05 0.05 0.06 0.05 0.03 0.02 0.02 0.03 0.04 0.06 0.05
0.04 0.04 0.03 0.02 0.01 0.01 0.02 0.01 0.00 0.00 0.00 0.00 0.01 0.02 0.03 0.05 0.05 0.04 0.03 0.03 0.03 0.03 0.05 0.08 0.08 0.07 0.05 0.04 0.05 0.04 0.04 0.03 0.02 0.04 0.05 0.08 0.06 0.04 0.04 0.04 0.05 0.05 0.03 0.02 0.03 0.04 0.04 0.05 0.06
0.02 0.03 0.03 0.02 0.01 0.01 0.01 0.01 0.01 0.00 0.00 0.01 0.01 0.03 0.04 0.04 0.04 0.04 0.03 0.04 0.05 0.07 0.10 0.12 0.09 0.08 0.05 0.04 0.05 0.06 0.05 0.04 0.04 0.05 0.07 0.08 0.06 0.04 0.03 0.03 0.05 0.06 0.05 0.05 0.06 0.07 0.06 0.06 0.05
0.01 0.02 0.02 0.01 0.00 0.00 0.01 0.01 0.01 0.00 0.00 0.01 0.02 0.03 0.04 0.04 0.03 0.04 0.05 0.08 0.10 0.13 0.14 0.14 0.10 0.08 0.07 0.06 0.05 0.04 0.03 0.04 0.04 0.05 0.06 0.06 0.06 0.05 0.04 0.05 0.06 0.06 0.08 0.10 0.11 0.12 0.08 0.06 0.03
0.01 0.02 0.02 0.01 0.00 0.00 0.00 0.00 0.01 0.00 0.01 0.02 0.03 0.04 0.04 0.03 0.03 0.03 0.05 0.08 0.13 0.15 0.15 0.13 0.09 0.07 0.05 0.05 0.04 0.03 0.03 0.04 0.04 0.04 0.04 0.04 0.05 0.04 0.07 0.08 0.09 0.09 0.11 0.10 0.12 0.14 0.07 0.05 0.03
0.01 0.02 0.02 0.01 0.00 0.00 0.00 0.00 0.01 0.01 0.01 0.02 0.03 0.04 0.04 0.04 0.03 0.03 0.03 0.05 0.09 0.11 0.09 0.08 0.09 0.07 0.06 0.05 0.05 0.04 0.03 0.03 0.02 0.04 0.04 0.04 0.04 0.03 0.06 0.10 0.11 0.13 0.13 0.11 0.11 0.14 0.07 0.04 0.04
0.00 0.00 0.00 0.01 0.01 0.00 0.00 0.00 0.01 0.01 0.01 0.01 0.02 0.03 0.03 0.04 0.04 0.02 0.02 0.03 0.03 0.03 0.03 0.03 0.05 0.05 0.04 0.04 0.03 0.03 0.03 0.03 0.03 0.05 0.04 0.04 0.04 0.04 0.05 0.09 0.12 0.12 0.10 0.09 0.08 0.10 0.08 0.05 0.04
0.00 0.00 0.00 0.01 0.01 0.01 0.00 0.00 0.01 0.02 0.01 0.01 0.02 0.02 0.02 0.03 0.03 0.03 0.02 0.02 0.02 0.02 0.02 0.01 0.02 0.03 0.03 0.02 0.02 0.04 0.04 0.05 0.05 0.04 0.03 0.03 0.03 0.02 0.03 0.05 0.08 0.08 0.07 0.07 0.06 0.06 0.07 0.05 0.04
0.00 0.00 0.00 0.01 0.02 0.01 0.01 0.01 0.01 0.01 0.01 0.01 0.01 0.01 0.01 0.02 0.03 0.03 0.02 0.02 0.01 0.02 0.02 0.01 0.02 0.02 0.03 0.03 0.03 0.05 0.06 0.06 0.05 0.04 0.03 0.03 0.03 0.03 0.02 0.02 0.04 0.05 0.06 0.06 0.05 0.05 0.06 0.05 0.04
0.00 0.00 0.00 0.01 0.01 0.01 0.02 0.02 0.01 0.01 0.01 0.01 0.01 0.01 0.01 0.03 0.02 0.02 0.01 0.01 0.01 0.01 0.01 0.01 0.01 0.02 0.03 0.03 0.04 0.05 0.09 0.10 0.07 0.06 0.05 0.03 0.03 0.03 0.03 0.03 0.04 0.04 0.05 0.05 0.05 0.04 0.05 0.04 0.04
0.00 0.00 0.00 0.01 0.01 0.01 0.01 0.01 0.01 0.00 0.00 0.01 0.01 0.01 0.00 0.01 0.01 0.01 0.02 0.01 0.01 0.01 0.02 0.01 0.01 0.02 0.02 0.02 0.03 0.05 0.11 0.13 0.10 0.08 0.06 0.04 0.04 0.05 0.05 0.05 0.05 0.03 0.03 0.03 0.03 0.03 0.03 0.02 0.03
0.01 0.00 0.00 0.01 0.01 0.01 0.01 0.01 0.01 0.00 0.00 0.01 0.01 0.01 0.01 0.01 0.01 0.01 0.02 0.02 0.01 0.01 0.02 0.01 0.02 0.02 0.01 0.01 0.01 0.04 0.05 0.06 0.07 0.08 0.07 0.06 0.06 0.05 0.05 0.04 0.03 0.02 0.03 0.03 0.03 0.02 0.02 0.02 0.02
0.01 0.00 0.00 0.01 0.01 0.01 0.01 0.00 0.00 0.00 0.00 0.00 0.01 0.01 0.01 0.01 0.01 0.01 0.02 0.03 0.01 0.01 0.01 0.01 0.02 0.01 0.00 0.00 0.01 0.02 0.02 0.02 0.03 0.04 0.05 0.04 0.05 0.05 0.04 0.03 0.02 0.02 0.03 0.03 0.02 0.02 0.02 0.02 0.03
0.00 0.00 0.00 0.01 0.01 0.01 0.00 0.00 0.00 0.00 0.00 0.00 0.00 0.00 0.00 0.00 0.00 0.00 0.01 0.01 0.01 0.01 0.01 0.01 0.01 0.01 0.00 0.00 0.01 0.01 0.02 0.02 0.01 0.01 0.02 0.03 0.04 0.05 0.03 0.02 0.02 0.02 0.03 0.02 0.02 0.01 0.02 0.02 0.02
0.01 0.00 0.00 0.00 0.01 0.01 0.00 0.01 0.00 0.00 0.00 0.00 0.00 0.00 0.00 0.00 0.00 0.01 0.01 0.01 0.01 0.02 0.01 0.02 0.01 0.01 0.00 0.00 0.01 0.01 0.02 0.01 0.01 0.01 0.01 0.01 0.02 0.02 0.02 0.02 0.01 0.02 0.04 0.03 0.01 0.02 0.01 0.01 0.02
0.01 0.00 0.00 0.00 0.01 0.01 0.00 0.01 0.01 0.01 0.00 0.00 0.00 0.00 0.00 0.00 0.00 0.01 0.01 0.01 0.01 0.04 0.03 0.05 0.03 0.01 0.01 0.01 0.01 0.01 0.01 0.01 0.01 0.01 0.01 0.01 0.02 0.02 0.02 0.01 0.01 0.01 0.02 0.02 0.01 0.01 0.01 0.01 0.02
0.00 0.00 0.00 0.01 0.01 0.01 0.00 0.01 0.00 0.00 0.00 0.00 0.00 0.00 0.00 0.00 0.00 0.01 0.00 0.01 0.01 0.03 0.03 0.05 0.06 0.02 0.02 0.02 0.01 0.00 0.00 0.01 0.01 0.01 0.01 0.00 0.01 0.02 0.02 0.02 0.01 0.02 0.02 0.02 0.02 0.01 0.01 0.01 0.02
0.00 0.00 0.00 0.01 0.00 0.01 0.00 0.01 0.00 0.00 0.00 0.00 0.00 0.00 0.00 0.00 0.00 0.00 0.00 0.01 0.01 0.01 0.01 0.02 0.03 0.02 0.02 0.02 0.01 0.00 0.01 0.01 0.01 0.01 0.01 0.01 0.01 0.02 0.02 0.02 0.01 0.02 0.03 0.03 0.02 0.01 0.01 0.01 0.01
0.00 0.01 0.01 0.01 0.01 0.01 0.01 0.00 0.00 0.00 0.00 0.00 0.00 0.00 0.00 0.00 0.00 0.00 0.00 0.00 0.01 0.01 0.01 0.02 0.03 0.02 0.01 0.01 0.01 0.01 0.01 0.01 0.01 0.00 0.00 0.01 0.02 0.02 0.01 0.02 0.01 0.01 0.02 0.03 0.03 0.02 0.01 0.01 0.02
0.00 0.01 0.01 0.01 0.02 0.02 0.01 0.00 0.00 0.00 0.00 0.00 0.00 0.00 0.00 0.00 0.00 0.00 0.00 0.00 0.00 0.01 0.01 0.02 0.03 0.04 0.01 0.01 0.01 0.01 0.01 0.01 0.01 0.01 0.01 0.02 0.03 0.03 0.01 0.01 0.01 0.01 0.01 0.01 0.02 0.03 0.02 0.02 0.01
0.01 0.01 0.01 0.01 0.01 0.01 0.01 0.00 0.00 0.00 0.00 0.00 0.00 0.00 0.00 0.00 0.00 0.00 0.00 0.00 0.01 0.01 0.01 0.01 0.02 0.02 0.01 0.01 0.01 0.01 0.01 0.02 0.03 0.03 0.04 0.05 0.04 0.04 0.01 0.00 0.00 0.01 0.01 0.01 0.01 0.02 0.02 0.02 0.02
0.01 0.01 0.01 0.01 0.01 0.01 0.00 0.00 0.00 0.00 0.00 0.00 0.00 0.00 0.00 0.00 0.00 0.00 0.00 0.00 0.01 0.01 0.01 0.01 0.02 0.02 0.01 0.01 0.01 0.01 0.02 0.02 0.03 0.04 0.05 0.05 0.05 0.04 0.02 0.00 0.01 0.00 0.01 0.01 0.01 0.01 0.01 0.01 0.02
0.01 0.01 0.01 0.01 0.01 0.00 0.00 0.00 0.00 0.00 0.00 0.00 0.00 0.00 0.00 0.00 0.00 0.00 0.00 0.00 0.00 0.01 0.01 0.02 0.02 0.01 0.02 0.02 0.02 0.02 0.02 0.02 0.03 0.05 0.06 0.05 0.04 0.03 0.01 0.00 0.00 0.00 0.00 0.01 0.01 0.01 0.00 0.00 0.01
0.01 0.01 0.01 0.01 0.00 0.00 0.00 0.00 0.00 0.00 0.00 0.00 0.00 0.00 0.00 0.00 0.00 0.00 0.00 0.00 0.00 0.00 0.00 0.01 0.01 0.01 0.02 0.02 0.02 0.02 0.03 0.04 0.04 0.05 0.05 0.03 0.02 0.01 0.01 0.00 0.00 0.00 0.00 0.01 0.01 0.00 0.00 0.00 0.00
MSLP
1005.29 1006.35 1007.68 1009.10 1010.44 1011.52 1012.25 1012.60 1012.64 1012.48 1012.29 1012.17 1012.22 1012.41 1012.70 1012.98 1013.15 1013.13 1012.92 1012.55 1012.11 1011.69 1011.38 1011.20 1011.17 1011.21 1011.27 1011.28 1011.19 1011.01 1010.77 1010.52 1010.33 1010.23 1010.23 1010.29 1010.36 1010.39 1010.32 1010.14 1009.85 1009.49 1009.12 1008.78 1008.52 1008.37 1008.31 1008.35 1008.45
1005.80 1007.07 1008.55 1010.03 1011.34 1012.31 1012.86 1012.99 1012.78 1012.39 1012.00 1011.73 1011.67 1011.83 1012.12 1012.45 1012.70 1012.78 1012.67 1012.39 1012.03 1011.69 1011.44 1011.33 1011.36 1011.48 1011.61 1011.68 1011.64 1011.49 1011.25 1010.99 1010.78 1010.65 1010.64 1010.71 1010.82 1010.92 1010.94 1010.85 1010.64 1010.35 1010.02 1009.69 1009.42 1009.24 1009.14 1009.14 1009.20
1006.45 1007.87 1009.43 1010.91 1012.13 1012.95 1013.31 1013.23 1012.82 1012.25 1011.71 1011.34 1011.23 1011.37 1011.69 1012.08 1012.40 1012.57 1012.54 1012.35 1012.07 1011.78 1011.59 1011.53 1011.61 1011.79 1011.97 1012.10 1012.11 1011.99 1011.77 1011.50 1011.26 1011.09 1011.04 1011.09 1011.21 1011.33 1011.41 1011.40 1011.29 1011.09 1010.84 1010.58 1010.36 1010.19 1010.10 1010.09 1010.14
1007.18 1008.69 1010.25 1011.66 1012.76 1013.42 1013.60 1013.35 1012.80 1012.12 1011.51 1011.11 1010.99 1011.15 1011.51 1011.94 1012.33 1012.56 1012.61 1012.48 1012.24 1012.00 1011.84 1011.81 1011.92 1012.11 1012.33 1012.50 1012.54 1012.46 1012.26 1011.99 1011.73 1011.53 1011.44 1011.44 1011.53 1011.65 1011.76 1011.80 1011.77 1011.67 1011.53 1011.37 1011.23 1011.13 1011.09 1011.10 1011.17
1007.95 1009.46 1010.94 1012.23 1013.17 1013.67 1013.71 1013.35 1012.74 1012.05 1011.45 1011.08 1011.01 1011.21 1011.60 1012.08 1012.50 1012.78 1012.86 1012.77 1012.57 1012.35 1012.20 1012.16 1012.26 1012.45 1012.67 1012.84 1012.91 1012.86 1012.68 1012.43 1012.17 1011.95 1011.82 1011.78 1011.83 1011.92 1012.02 1012.09 1012.11 1012.09 1012.04 1011.98 1011.94 1011.93 1011.96 1012.03 1012.14
1008.68 1010.11 1011.45 1012.56 1013.33 1013.68 1013.63 1013.25 1012.67 1012.04 1011.54 1011.26 1011.26 1011.51 1011.95 1012.44 1012.88 1013.16 1013.26 1013.19 1013.00 1012.79 1012.62 1012.56 1012.63 1012.78 1012.96 1013.11 1013.19 1013.15 1013.00 1012.79 1012.55 1012.34 1012.20 1012.13 1012.14 1012.19 1012.26 1012.32 1012.36 1012.38 1012.39 1012.40 1012.43 1012.50 1012.60 1012.74 1012.89
1009.29 1010.57 1011.72 1012.64 1013.23 1013.48 1013.39 1013.04 1012.56 1012.08 1011.72 1011.57 1011.67 1011.98 1012.43 1012.92 1013.34 1013.61 1013.71 1013.64 1013.46 1013.25 1013.07 1012.98 1012.99 1013.08 1013.20 1013.31 1013.37 1013.33 1013.22 1013.05 1012.86 1012.69 1012.57 1012.50 1012.49 1012.51 1012.54 1012.56 1012.58 1012.58 1012.60 1012.64 1012.71 1012.82 1012.97 1013.15 1013.34
1009.73 1010.82 1011.76 1012.47 1012.92 1013.08 1013.01 1012.75 1012.42 1012.12 1011.94 1011.94 1012.14 1012.49 1012.94 1013.39 1013.77 1014.01 1014.09 1014.03 1013.86 1013.66 1013.48 1013.36 1013.33 1013.35 1013.41 1013.46 1013.47 1013.44 1013.35 1013.24 1013.11 1013.01 1012.94 1012.90 1012.89 1012.89 1012.89 1012.86 1012.83 1012.79 1012.77 1012.78 1012.84 1012.95 1013.11 1013.30 1013.51
1010.00 1010.88 1011.60 1012.13 1012.45 1012.57 1012.54 1012.41 1012.26 1012.15 1012.15 1012.29 1012.56 1012.93 1013.35 1013.75 1014.07 1014.26 1014.33 1014.28 1014.14 1013.98 1013.82 1013.70 1013.62 1013.59 1013.59 1013.58 1013.55 1013.50 1013.43 1013.36 1013.31 1013.29 1013.29 1013.31 1013.33 1013.33 1013.31 1013.24 1013.15 1013.05 1012.96 1012.92 1012.93 1013.00 1013.14 1013.31 1013.51
1010.11 1010.80 1011.33 1011.70 1011.92 1012.03 1012.06 1012.07 1012.09 1012.16 1012.32 1012.56 1012.88 1013.24 1013.60 1013.92 1014.17 1014.32 1014.37 1014.35 1014.26 1014.15 1014.04 1013.95 1013.88 1013.82 1013.76 1013.70 1013.63 1013.56 1013.50 1013.46 1013.47 1013.52 1013.60 1013.68 1013.76 1013.79 1013.76 1013.67 1013.54 1013.39 1013.24 1013.13 1013.08 1013.10 1013.19 1013.34 1013.52
1010.13 1010.66 1011.03 1011.28 1011.44 1011.55 1011.65 1011.78 1011.95 1012.17 1012.44 1012.74 1013.07 1013.38 1013.67 1013.91 1014.08 1014.19 1014.24 1014.24 1014.22 1014.19 1014.16 1014.12 1014.08 1014.02 1013.94 1013.84 1013.73 1013.64 1013.57 1013.55 1013.60 1013.70 1013.84 1013.99 1014.12 1014.19 1014.20 1014.12 1013.98 1013.80 1013.62 1013.47 1013.37 1013.35 1013.39 1013.50 1013.66
1010.15 1010.56 1010.82 1010.98 1011.10 1011.22 1011.39 1011.61 1011.88 1012.20 1012.53 1012.86 1013.16 1013.41 1013.62 1013.76 1013.86 1013.93 1013.98 1014.02 1014.07 1014.12 1014.17 1014.21 1014.22 1014.19 1014.12 1014.01 1013.88 1013.76 1013.68 1013.66 1013.71 1013.83 1014.01 1014.20 1014.38 1014.50 1014.55 1014.52 1014.41 1014.25 1014.08 1013.92 1013.81 1013.76 1013.79 1013.87 1014.01
1010.27 1010.59 1010.76 1010.87 1010.96 1011.10 1011.30 1011.58 1011.91 1012.27 1012.62 1012.94 1013.19 1013.38 1013.50 1013.57 1013.60 1013.63 1013.68 1013.75 1013.85 1013.98 1014.11 1014.22 1014.30 1014.32 1014.28 1014.19 1014.07 1013.94 1013.84 1013.80 1013.83 1013.94 1014.11 1014.31 1014.52 1014.69 1014.79 1014.82 1014.78 1014.68 1014.56 1014.44 1014.36 1014.32 1014.34 1014.42 1014.55
1010.53 1010.78 1010.91 1010.98 1011.06 1011.20 1011.42 1011.72 1012.06 1012.42 1012.75 1013.03 1013.22 1013.34 1013.40 1013.41 1013.40 1013.40 1013.44 1013.52 1013.65 1013.82 1014.00 1014.18 1014.32 1014.41 1014.42 1014.38 1014.28 1014.16 1014.05 1013.98 1013.97 1014.04 1014.17 1014.35 1014.56 1014.75 1014.90 1015.00 1015.04 1015.04 1015.00 1014.95 1014.92 1014.93 1014.98 1015.07 1015.19
1010.92 1011.13 1011.23 1011.29 1011.37 1011.50 1011.72 1012.00 1012.32 1012.64 1012.92 1013.14 1013.28 1013.35 1013.36 1013.34 1013.30 1013.29 1013.31 1013.38 1013.51 1013.68 1013.89 1014.10 1014.29 1014.43 1014.52 1014.54 1014.50 1014.42 1014.32 1014.23 1014.18 1014.18 1014.25 1014.38 1014.55 1014.74 1014.92 1015.08 1015.21 1015.29 1015.34 1015.39 1015.43 1015.49 1015.58 1015.69 1015.82
1011.40 1011.58 1011.67 1011.73 1011.81 1011.95 1012.14 1012.39 1012.65 1012.90 1013.11 1013.27 1013.36 1013.40 1013.40 1013.37 1013.34 1013.32 1013.32 1013.37 1013.46 1013.61 1013.79 1014.00 1014.22 1014.42 1014.58 1014.68 1014.73 1014.71 1014.64 1014.55 1014.46 1014.41 1014.40 1014.46 1014.57 1014.73 1014.92 1015.11 1015.30 1015.46 1015.60 1015.72 1015.83 1015.94 1016.07 1016.20 1016.33
1011.85 1012.03 1012.13 1012.22 1012.32 1012.47 1012.64 1012.83 1013.01 1013.17 1013.29 1013.38 1013.43 1013.46 1013.47 1013.47 1013.46 1013.45 1013.45 1013.47 1013.51 1013.60 1013.73 1013.91 1014.13 1014.37 1014.60 1014.80 1014.94 1015.01 1015.01 1014.94 1014.84 1014.74 1014.66 1014.63 1014.68 1014.78 1014.95 1015.15 1015.37 1015.58 1015.78 1015.95 1016.11 1016.26 1016.41 1016.56 1016.70
1012.20 1012.39 1012.55 1012.70 1012.85 1013.01 1013.16 1013.29 1013.37 1013.42 1013.43 1013.44 1013.44 1013.46 1013.50 1013.54 1013.59 1013.62 1013.63 1013.63 1013.62 1013.64 1013.71 1013.84 1014.04 1014.31 1014.61 1014.90 1015.15 1015.33 1015.40 1015.39 1015.30 1015.16 1015.03 1014.93 1014.90 1014.95 1015.08 1015.26 1015.48 1015.71 1015.93 1016.14 1016.32 1016.48 1016.64 1016.79 1016.94
1012.37 1012.62 1012.87 1013.13 1013.37 1013.57 1013.70 1013.75 1013.72 1013.62 1013.50 1013.39 1013.33 1013.34 1013.40 1013.51 1013.63 1013.73 1013.78 1013.79 1013.76 1013.72 1013.73 1013.81 1013.99 1014.26 1014.61 1014.99 1015.34 1015.62 1015.80 1015.85 1015.78 1015.65 1015.48 1015.33 1015.24 1015.24 1015.32 1015.47 1015.68 1015.90 1016.12 1016.32 1016.49 1016.65 1016.80 1016.95 1017.10
1012.35 1012.72 1013.11 1013.51 1013.87 1014.13 1014.24 1014.21 1014.03 1013.77 1013.47 1013.22 1013.07 1013.04 1013.12 1013.30 1013.52 1013.71 1013.84 1013.88 1013.86 1013.80 1013.77 1013.81 1013.96 1014.23 1014.62 1015.06 1015.50 1015.87 1016.14 1016.26 1016.24 1016.12 1015.95 1015.77 1015.65 1015.60 1015.64 1015.77 1015.95 1016.15 1016.35 1016.53 1016.69 1016.83 1016.96 1017.10 1017.25
1012.20 1012.73 1013.31 1013.90 1014.39 1014.71 1014.81 1014.67 1014.33 1013.85 1013.35 1012.91 1012.63 1012.53 1012.63 1012.87 1013.18 1013.49 1013.73 1013.86 1013.88 1013.85 1013.80 1013.82 1013.96 1014.23 1014.62 1015.10 1015.60 1016.05 1016.38 1016.57 1016.60 1016.51 1016.35 1016.17 1016.03 1015.96 1015.99 1016.09 1016.25 1016.44 1016.62 1016.77 1016.91 1017.02 1017.14 1017.27 1017.43
1012.01 1012.73 1013.54 1014.32 1014.95 1015.34 1015.40 1015.14 1014.60 1013.89 1013.14 1012.49 1012.04 1011.85 1011.93 1012.22 1012.63 1013.07 1013.44 1013.69 1013.80 1013.82 1013.81 1013.83 1013.96 1014.22 1014.61 1015.10 1015.63 1016.11 1016.49 1016.72 1016.80 1016.74 1016.60 1016.44 1016.31 1016.24 1016.27 1016.37 1016.53 1016.70 1016.87 1017.01 1017.13 1017.22 1017.32 1017.45 1017.61
1011.88 1012.81 1013.84 1014.80 1015.56 1015.98 1015.99 1015.58 1014.83 1013.87 1012.86 1011.97 1011.34 1011.04 1011.08 1011.40 1011.91 1012.47 1012.98 1013.37 1013.61 1013.72 1013.76 1013.81 1013.93 1014.19 1014.57 1015.05 1015.57 1016.06 1016.45 1016.71 1016.81 1016.78 1016.67 1016.53 1016.42 1016.38 1016.42 1016.54 1016.71 1016.89 1017.06 1017.19 1017.29 1017.38 1017.46 1017.58 1017.74
1011.89 1013.01 1014.22 1015.33 1016.16 1016.59 1016.52 1015.95 1014.99 1013.77 1012.51 1011.40 1010.59 1010.18 1010.17 1010.51 1011.09 1011.77 1012.42 1012.94 1013.31 1013.52 1013.63 1013.72 1013.86 1014.11 1014.47 1014.92 1015.42 1015.89 1016.28 1016.53 1016.65 1016.64 1016.55 1016.45 1016.37 1016.36 1016.43 1016.57 1016.76 1016.96 1017.13 1017.27 1017.36 1017.43 1017.51 1017.61 1017.76
1012.04 1013.31 1014.64 1015.83 1016.69 1017.07 1016.90 1016.17 1015.01 1013.57 1012.10 1010.80 1009.85 1009.34 1009.29 1009.64 1010.28 1011.05 1011.81 1012.45 1012.93 1013.24 1013.43 1013.56 1013.73 1013.97 1014.31 1014.73 1015.19 1015.64 1016.00 1016.25 1016.36 1016.37 1016.30 1016.22 1016.17 1016.20 1016.30 1016.47 1016.68 1016.90 1017.08 1017.22 1017.31 1017.37 1017.43 1017.51 1017.63
1012.29 1013.64 1015.01 1016.21 1017.03 1017.33 1017.03 1016.16 1014.84 1013.25 1011.63 1010.22 1009.17 1008.60 1008.53 1008.89 1009.57 1010.40 1011.23 1011.96 1012.52 1012.90 1013.15 1013.33 1013.51 1013.76 1014.09 1014.49 1014.92 1015.33 1015.68 1015.91 1016.02 1016.03 1015.98 1015.93 1015.90 1015.95 1016.08 1016.27 1016.50 1016.73 1016.93 1017.07 1017.16 1017.20 1017.23 1017.28 1017.37
1012.55 1013.90 1015.24 1016.37 1017.10 1017.28 1016.86 1015.87 1014.45 1012.78 1011.11 1009.66 1008.60 1008.02 1007.95 1008.33 1009.02 1009.87 1010.74 1011.50 1012.10 1012.53 1012.81 1013.03 1013.23 1013.49 1013.81 1014.20 1014.62 1015.02 1015.35 1015.57 1015.69 1015.71 1015.67 1015.63 1015.63 1015.69 1015.83 1016.04 1016.28 1016.52 1016.72 1016.86 1016.93 1016.95 1016.95 1016.96 1017.00
1012.73 1014.01 1015.24 1016.24 1016.82 1016.87 1016.34 1015.29 1013.84 1012.18 1010.55 1009.16 1008.15 1007.63 1007.59 1007.98 1008.67 1009.51 1010.36 1011.11 1011.70 1012.13 1012.43 1012.66 1012.89 1013.16 1013.49 1013.89 1014.31 1014.71 1015.04 1015.27 1015.39 1015.42 1015.40 1015.37 1015.38 1015.45 1015.60 1015.81 1016.05 1016.29 1016.49 1016.62 1016.68 1016.68 1016.65 1016.61 1016.60
1012.76 1013.91 1014.98 1015.80 1016.22 1016.13 1015.53 1014.46 1013.05 1011.49 1009.99 1008.74 1007.86 1007.44 1007.46 1007.86 1008.52 1009.31 1010.10 1010.79 1011.33 1011.73 1012.01 1012.25 1012.49 1012.78 1013.14 1013.55 1013.99 1014.40 1014.75 1014.99 1015.12 1015.17 1015.16 1015.14 1015.15 1015.23 1015.37 1015.58 1015.82 1016.05 1016.24 1016.37 1016.42 1016.40 1016.34 1016.26 1016.20
1012.65 1013.64 1014.51 1015.13 1015.38 1015.18 1014.52 1013.49 1012.19 1010.80 1009.49 1008.43 1007.72 1007.42 1007.51 1007.91 1008.53 1009.24 1009.92 1010.52 1010.98 1011.32 1011.57 1011.79 1012.04 1012.35 1012.73 1013.17 1013.63 1014.06 1014.43 1014.69 1014.84 1014.90 1014.90 1014.89 1014.90 1014.97 1015.11 1015.31 1015.54 1015.76 1015.95 1016.08 1016.12 1016.10 1016.02 1015.91 1015.81
Thickness
5807 5805 5801 5791 5770 5749 5745 5757 5767 5766 5767 5773 5776 5772 5764 5757 5752 5748 5768 5777 5779 5779 5780 5780 5780 5779 5779 5779 5779 5779 5779 5780 5780 5779 5779 5778 5778 5777 5777 5776 5775 5774 5774 5773 5772 5770 5769 5768 5767
5809 5805 5797 5781 5756 5736 5744 5762 5765 5768 5774 5779 5778 5773 5765 5761 5766 5766 5770 5776 5778 5778 5778 5779 5778 5778 5777 5777 5777 5778 5778 5779 5779 5778 5778 5777 5777 5776 5775 5775 5774 5773 5772 5771 5770 5769 5767 5767 5766
5811 5807 5788 5770 5752 5742 5750 5765 5768 5776 5782 5780 5774 5772 5766 5762 5767 5769 5773 5777 5777 5777 5777 5777 5777 5777 5776 5776 5776 5777 5777 5777 5777 5777 5777 5776 5776 5775 5774 5773 5772 5772 5771 5770 5769 5767 5766 5765 5764
5809 5797 5784 5764 5755 5761 5766 5771 5776 5776 5779 5780 5774 5766 5768 5773 5773 5774 5776 5777 5776 5776 5776 5776 5776 5776 5776 5776 5776 5776 5776 5776 5776 5776 5776 5775 5775 5774 5773 5772 5771 5771 5770 5769 5767 5766 5765 5764 5763
5807 5788 5768 5755 5759 5769 5777 5781 5781 5775 5773 5775 5773 5762 5762 5773 5777 5776 5776 5776 5774 5775 5775 5775 5776 5776 5776 5776 5775 5775 5775 5775 5775 5775 5774 5774 5773 5772 5771 5771 5770 5769 5768 5767 5766 5765 5764 5763 5762
5794 5781 5757 5749 5759 5772 5780 5784 5781 5774 5773 5775 5771 5763 5762 5773 5774 5774 5775 5775 5774 5774 5775 5775 5775 5775 5775 5775 5775 5775 5775 5774 5774 5773 5773 5772 5772 5771 5770 5769 5768 5768 5767 5766 5765 5764 5763 5762 5761
5789 5774 5761 5760 5762 5769 5779 5786 5779 5774 5772 5774 5775 5762 5763 5770 5774 5775 5775 5774 5774 5774 5774 5774 5774 5775 5775 5775 5774 5774 5774 5773 5773 5772 5772 5771 5770 5769 5768 5767 5767 5766 5766 5765 5764 5763 5762 5761 5760
5800 5779 5766 5764 5764 5769 5784 5787 5785 5780 5776 5784 5781 5764 5761 5770 5775 5775 5773 5772 5772 5772 5773 5774 5774 5774 5774 5774 5774 5774 5773 5772 5772 5771 5771 5770 5769 5768 5767 5767 5766 5765 5764 5764 5763 5762 5761 5760 5759
5805 5774 5762 5769 5770 5775 5787 5784 5786 5791 5783 5782 5782 5777 5776 5777 5776 5772 5769 5768 5769 5770 5771 5772 5773 5773 5773 5773 5773 5773 5772 5772 5771 5770 5770 5768 5767 5767 5766 5766 5765 5764 5763 5762 5761 5761 5760 5759 5758
5795 5771 5778 5790 5790 5787 5789 5786 5785 5783 5777 5775 5776 5778 5780 5777 5773 5768 5766 5764 5765 5767 5769 5771 5772 5772 5773 5773 5772 5772 5771 5770 5769 5769 5768 5767 5766 5766 5766 5765 5764 5763 5762 5761 5760 5760 5759 5758 5757
5797 5785 5794 5800 5802 5798 5791 5788 5790 5780 5771 5775 5774 5775 5776 5774 5771 5768 5767 5766 5767 5768 5769 5770 5771 5772 5772 5772 5771 5771 5770 5769 5768 5767 5767 5766 5765 5765 5765 5764 5763 5762 5761 5760 5759 5758 5758 5757 5756
5799 5802 5806 5805 5807 5801 5794 5791 5787 5783 5783 5789 5787 5783 5778 5774 5771 5770 5769 5769 5769 5769 5770 5771 5772 5771 5771 5771 5770 5769 5769 5768 5767 5766 5766 5765 5764 5763 5763 5763 5762 5761 5760 5759 5758 5757 5756 5756 5755
5803 5804 5810 5809 5806 5802 5797 5791 5788 5786 5793 5793 5789 5784 5779 5776 5775 5774 5773 5772 5771 5770 5771 5772 5772 5772 5771 5770 5770 5769 5768 5767 5766 5765 5765 5764 5763 5762 5762 5761 5760 5760 5759 5757 5756 5756 5755 5755 5754
5808 5808 5807 5807 5804 5803 5794 5790 5788 5787 5794 5791 5786 5782 5781 5779 5778 5775 5774 5773 5772 5772 5773 5773 5773 5772 5771 5770 5770 5769 5767 5766 5765 5765 5764 5763 5762 5761 5760 5760 5759 5758 5757 5756 5756 5755 5755 5754 5753
5814 5803 5799 5801 5802 5801 5795 5782 5786 5792 5793 5787 5785 5784 5782 5781 5780 5778 5778 5777 5776 5775 5775 5774 5774 5773 5772 5771 5770 5769 5767 5766 5765 5764 5764 5763 5762 5762 5761 5759 5758 5757 5757 5756 5756 5755 5754 5753 5752
5805 5791 5780 5794 5800 5800 5789 5770 5788 5795 5791 5785 5785 5785 5783 5782 5782 5783 5782 5781 5780 5778 5776 5776 5776 5774 5772 5771 5770 5769 5767 5766 5765 5764 5763 5763 5762 5762 5760 5759 5758 5757 5756 5756 5755 5754 5752 5752 5751
5783 5773 5775 5787 5800 5799 5787 5776 5790 5796 5791 5785 5785 5785 5784 5783 5784 5785 5785 5784 5783 5781 5779 5777 5776 5775 5774 5772 5770 5769 5767 5766 5765 5764 5763 5763 5762 5761 5760 5759 5759 5758 5757 5756 5755 5753 5752 5750 5749
5774 5775 5777 5781 5796 5795 5785 5783 5791 5795 5792 5788 5787 5786 5785 5784 5785 5788 5787 5786 5785 5783 5781 5779 5777 5776 5774 5772 5770 5768 5767 5766 5765 5764 5763 5763 5762 5762 5761 5760 5760 5759 5757 5756 5755 5753 5752 5750 5749
5790 5783 5779 5788 5802 5794 5786 5785 5790 5795 5793 5789 5787 5786 5785 5787 5790 5790 5789 5788 5786 5784 5782 5780 5777 5776 5775 5772 5769 5766 5765 5765 5765 5765 5764 5763 5763 5762 5762 5761 5760 5759 5758 5756 5755 5753 5750 5748 5748
5792 5783 5783 5792 5803 5796 5787 5786 5794 5796 5795 5795 5793 5790 5789 5788 5789 5790 5789 5789 5787 5785 5784 5782 5779 5778 5776 5775 5772 5770 5768 5767 5766 5766 5765 5764 5763 5763 5762 5761 5760 5759 5758 5756 5755 5753 5750 5748 5748
5791 5785 5786 5788 5794 5795 5788 5779 5787 5796 5800 5799 5798 5797 5795 5793 5790 5790 5790 5789 5788 5787 5786 5786 5782 5780 5778 5777 5774 5771 5769 5767 5765 5765 5764 5765 5764 5763 5763 5762 5761 5760 5759 5757 5755 5754 5751 5747 5746
5783 5800 5798 5793 5778 5769 5778 5757 5779 5789 5792 5796 5798 5799 5798 5798 5796 5794 5793 5792 5791 5790 5789 5787 5785 5782 5780 5778 5775 5771 5767 5764 5764 5765 5765 5765 5765 5764 5764 5763 5762 5761 5759 5758 5757 5755 5753 5750 5745
5796 5806 5799 5789 5776 5766 5770 5759 5770 5786 5785 5794 5802 5804 5805 5804 5801 5799 5798 5797 5795 5794 5791 5789 5786 5783 5782 5779 5777 5773 5769 5768 5767 5767 5765 5765 5765 5765 5764 5763 5763 5761 5760 5759 5757 5755 5753 5751 5747
5806 5795 5785 5772 5763 5750 5764 5759 5765 5779 5792 5801 5807 5809 5809 5808 5806 5804 5803 5800 5798 5796 5793 5790 5786 5784 5783 5781 5778 5775 5772 5770 5767 5766 5765 5764 5764 5764 5764 5763 5762 5761 5760 5758 5757 5755 5753 5751 5748
5794 5769 5746 5744 5735 5742 5764 5761 5770 5800 5809 5812 5813 5814 5814 5812 5809 5805 5802 5800 5798 5797 5795 5792 5788 5785 5784 5782 5780 5777 5775 5772 5769 5768 5766 5764 5763 5763 5763 5763 5762 5760 5759 5758 5756 5754 5752 5751 5748
5784 5773 5745 5734 5731 5742 5759 5759 5786 5812 5819 5821 5821 5820 5817 5813 5811 5809 5807 5804 5802 5800 5797 5794 5791 5788 5787 5784 5781 5779 5777 5774 5772 5770 5768 5766 5765 5764 5764 5763 5761 5760 5759 5758 5756 5754 5752 5750 5748
5778 5770 5772 5748 5744 5740 5750 5768 5793 5814 5815 5817 5817 5817 5816 5815 5814 5812 5810 5808 5805 5802 5800 5798 5794 5791 5789 5786 5784 5781 5778 5776 5773 5771 5769 5767 5766 5765 5764 5762 5761 5759 5758 5756 5754 5752 5751 5749 5747
5790 5774 5756 5745 5733 5732 5747 5759 5772 5798 5804 5810 5812 5814 5816 5816 5815 5814 5812 5810 5808 5806 5803 5800 5797 5793 5791 5789 5786 5783 5780 5778 5776 5772 5770 5768 5766 5765 5763 5761 5760 5758 5757 5755 5753 5751 5749 5747 5746
5774 5767 5755 5742 5743 5732 5734 5757 5799 5802 5808 5809 5813 5816 5817 5817 5816 5815 5813 5812 5810 5807 5804 5800 5797 5794 5791 5789 5786 5784 5781 5779 5776 5774 5771 5769 5767 5765 5763 5761 5759 5757 5755 5754 5752 5750 5748 5746 5744
5783 5771 5759 5748 5740 5737 5737 5760 5813 5812 5814 5814 5814 5817 5818 5819 5818 5816 5814 5811 5808 5805 5803 5800 5798 5795 5792 5790 5786 5783 5781 5779 5776 5773 5771 5769 5767 5765 5763 5760 5758 5756 5754 5752 5750 5748 5746 5744 5742